| time (UTC) | temp C | wind direction | speed KPH | gust KPH | rain 1hr cm | rain 24hr cm | rain mn cm | humidity % | barometer mb |
| 20260507094037 | 17 | 110 | 11.3 | 16.1 | 0.00 | 0.41 | 0.23 | 79 | 1015.3 |
| 20260507093533 | 17 | 144 | 8.0 | 11.3 | 0.00 | 0.41 | 0.23 | 78 | 1015.4 |
| 20260507092529 | 17 | 61 | 8.0 | 16.1 | 0.00 | 0.41 | 0.23 | 79 | 1015.4 |
| 20260507092020 | 17 | 140 | 6.4 | 14.5 | 0.00 | 0.41 | 0.23 | 79 | 1015.5 |
| 20260507091528 | 17 | 230 | 8.0 | 14.5 | 0.00 | 0.41 | 0.23 | 81 | 1015.5 |
| 20260507091025 | 16 | 235 | 6.4 | 11.3 | 0.00 | 0.41 | 0.23 | 82 | 1015.4 |
| 20260507090525 | 16 | 190 | 6.4 | 17.7 | 0.00 | 0.41 | 0.23 | 83 | 1015.5 |
| 20260507090007 | 16 | 210 | 8.0 | 17.7 | 0.00 | 0.41 | 0.23 | 82 | 1015.5 |
| 20260507084949 | 16 | 182 | 9.7 | 16.1 | 0.00 | 0.41 | 0.23 | 83 | 1015.6 |
| 20260507084442 | 16 | 137 | 6.4 | 17.7 | 0.00 | 0.41 | 0.23 | 84 | 1015.5 |
| 20260507083945 | 16 | 238 | 9.7 | 19.3 | 0.00 | 0.41 | 0.23 | 83 | 1015.6 |
| 20260507083439 | 16 | 233 | 8.0 | 19.3 | 0.00 | 0.41 | 0.23 | 83 | 1015.5 |
| 20260507082935 | 16 | 199 | 8.0 | 11.3 | 0.00 | 0.41 | 0.23 | 85 | 1015.6 |
| 20260507082434 | 15 | 133 | 6.4 | 11.3 | 0.00 | 0.41 | 0.23 | 85 | 1015.5 |
| 20260507081938 | 15 | 127 | 8.0 | 11.3 | 0.00 | 0.41 | 0.23 | 86 | 1015.5 |
| 20260507081433 | 15 | 203 | 8.0 | 11.3 | 0.00 | 0.41 | 0.23 | 87 | 1015.5 |
| 20260507080933 | 15 | 200 | 8.0 | 17.7 | 0.00 | 0.41 | 0.23 | 87 | 1015.5 |
| 20260507080432 | 15 | 207 | 8.0 | 17.7 | 0.00 | 0.41 | 0.23 | 86 | 1015.6 |
| 20260507075931 | 15 | 157 | 8.0 | 17.7 | 0.00 | 0.41 | 0.23 | 89 | 1015.7 |
| 20260507075432 | 15 | 130 | 6.4 | 11.3 | 0.00 | 0.41 | 0.23 | 90 | 1015.6 |
| 20260507074930 | 14 | 189 | 6.4 | 9.7 | 0.00 | 0.41 | 0.23 | 90 | 1015.6 |
| 20260507074432 | 14 | 176 | 6.4 | 9.7 | 0.00 | 0.41 | 0.23 | 90 | 1015.7 |
| 20260507073429 | 13 | 202 | 9.7 | 11.3 | 0.00 | 0.41 | 0.23 | 89 | 1015.6 |
| 20260507072931 | 13 | 162 | 4.8 | 8.0 | 0.00 | 0.41 | 0.23 | 90 | 1015.6 |
| 20260507071933 | 13 | 144 | 6.4 | 14.5 | 0.00 | 0.41 | 0.23 | 90 | 1015.6 |
| 20260507071429 | 13 | 131 | 8.0 | 14.5 | 0.00 | 0.41 | 0.23 | 91 | 1015.6 |
| 20260507070930 | 13 | 186 | 9.7 | 11.3 | 0.00 | 0.41 | 0.23 | 90 | 1015.5 |
| 20260507070430 | 13 | 204 | 6.4 | 14.5 | 0.00 | 0.41 | 0.23 | 93 | 1015.5 |
| 20260507065930 | 13 | 193 | 6.4 | 16.1 | 0.00 | 0.41 | 0.23 | 93 | 1015.5 |
| 20260507065429 | 13 | 55 | 6.4 | 16.1 | 0.00 | 0.41 | 0.23 | 93 | 1015.4 |
| 20260507064428 | 13 | 206 | 9.7 | 16.1 | 0.00 | 0.41 | 0.23 | 93 | 1015.4 |
| 20260507063929 | 13 | 178 | 9.7 | 11.3 | 0.00 | 0.41 | 0.23 | 93 | 1015.3 |
| 20260507062429 | 12 | 154 | 4.8 | 9.7 | 0.00 | 0.41 | 0.23 | 93 | 1015.3 |
| 20260507061928 | 12 | 183 | 4.8 | 9.7 | 0.00 | 0.41 | 0.23 | 93 | 1015.3 |
| 20260507061429 | 12 | 200 | 6.4 | 9.7 | 0.00 | 0.41 | 0.23 | 93 | 1015.2 |
| 20260507060928 | 12 | 214 | 4.8 | 9.7 | 0.00 | 0.41 | 0.23 | 93 | 1015.3 |
| 20260507060426 | 12 | 234 | 6.4 | 11.3 | 0.00 | 0.41 | 0.23 | 93 | 1015.3 |
| 20260507055928 | 12 | 113 | 8.0 | 11.3 | 0.00 | 0.41 | 0.23 | 93 | 1015.2 |
| 20260507055428 | 12 | 145 | 8.0 | 9.7 | 0.00 | 0.41 | 0.23 | 94 | 1015.3 |
| 20260507054927 | 12 | 183 | 6.4 | 9.7 | 0.00 | 0.41 | 0.23 | 94 | 1015.2 |
| 20260507054431 | 12 | 147 | 6.4 | 9.7 | 0.00 | 0.41 | 0.23 | 94 | 1015.3 |
| 20260507053927 | 12 | 172 | 6.4 | 14.5 | 0.00 | 0.41 | 0.23 | 94 | 1015.1 |
| 20260507053432 | 12 | 164 | 8.0 | 14.5 | 0.00 | 0.41 | 0.23 | 94 | 1015.1 |
| 20260507052928 | 12 | 185 | 6.4 | 9.7 | 0.00 | 0.41 | 0.23 | 94 | 1015.1 |
| 20260507052431 | 12 | 154 | 6.4 | 16.1 | 0.00 | 0.41 | 0.23 | 94 | 1014.9 |
| 20260507051915 | 12 | 185 | 6.4 | 16.1 | 0.00 | 0.41 | 0.23 | 94 | 1014.9 |
| 20260507051415 | 12 | 168 | 4.8 | 11.3 | 0.00 | 0.41 | 0.23 | 94 | 1014.9 |
| 20260507050905 | 12 | 157 | 4.8 | 14.5 | 0.00 | 0.41 | 0.23 | 94 | 1014.9 |
| 20260507050406 | 12 | 188 | 9.7 | 14.5 | 0.00 | 0.41 | 0.23 | 94 | 1014.9 |
| 20260507045904 | 12 | 221 | 3.2 | 11.3 | 0.00 | 0.41 | 0.23 | 94 | 1014.9 |
| 20260507045358 | 12 | 226 | 4.8 | 17.7 | 0.00 | 0.41 | 0.23 | 94 | 1014.7 |
| 20260507044856 | 11 | 113 | 8.0 | 17.7 | 0.00 | 0.41 | 0.23 | 94 | 1014.7 |
| 20260507044348 | 11 | 172 | 9.7 | 20.9 | 0.00 | 0.41 | 0.23 | 94 | 1014.6 |
| 20260507043848 | 11 | 124 | 9.7 | 20.9 | 0.00 | 0.41 | 0.23 | 94 | 1014.6 |
| 20260507043340 | 11 | 142 | 6.4 | 9.7 | 0.00 | 0.41 | 0.23 | 94 | 1014.6 |
| 20260507042847 | 12 | 145 | 6.4 | 14.5 | 0.00 | 0.41 | 0.23 | 94 | 1014.5 |
| 20260507042338 | 12 | 186 | 6.4 | 14.5 | 0.00 | 0.41 | 0.23 | 94 | 1014.5 |
| 20260507041836 | 12 | 216 | 3.2 | 16.1 | 0.00 | 0.41 | 0.23 | 94 | 1014.5 |
| 20260507041333 | 11 | 155 | 11.3 | 16.1 | 0.00 | 0.41 | 0.23 | 94 | 1014.3 |
| 20260507040837 | 11 | 188 | 9.7 | 16.1 | 0.00 | 0.41 | 0.23 | 94 | 1014.4 |
| 20260507040323 | 11 | 193 | 8.0 | 16.1 | 0.00 | 0.41 | 0.23 | 94 | 1014.3 |
| 20260507035813 | 11 | 149 | 8.0 | 16.1 | 0.00 | 0.41 | 0.23 | 94 | 1014.2 |
| 20260507035318 | 11 | 200 | 11.3 | 16.1 | 0.00 | 0.41 | 0.23 | 94 | 1014.2 |
| 20260507034758 | 12 | 209 | 8.0 | 14.5 | 0.00 | 0.41 | 0.23 | 94 | 1014.3 |
| 20260507034242 | 12 | 196 | 6.4 | 17.7 | 0.00 | 0.41 | 0.23 | 94 | 1014.2 |
| 20260507033739 | 12 | 185 | 8.0 | 17.7 | 0.00 | 0.41 | 0.23 | 94 | 1014.2 |
| 20260507033233 | 12 | 219 | 6.4 | 14.5 | 0.00 | 0.41 | 0.23 | 94 | 1014.2 |
| 20260507032735 | 12 | 192 | 9.7 | 14.5 | 0.00 | 0.41 | 0.23 | 94 | 1014.1 |
| 20260507032231 | 12 | 206 | 8.0 | 14.5 | 0.00 | 0.41 | 0.23 | 94 | 1014.2 |
| 20260507031730 | 12 | 183 | 6.4 | 14.5 | 0.00 | 0.41 | 0.23 | 94 | 1014.1 |
| 20260507025658 | 12 | 168 | 11.3 | 16.1 | 0.00 | 0.41 | 0.23 | 94 | 1014.1 |
| 20260507025157 | 12 | 162 | 8.0 | 16.1 | 0.00 | 0.41 | 0.23 | 94 | 1014.1 |
| 20260507024154 | 12 | 190 | 6.4 | 16.1 | 0.00 | 0.41 | 0.23 | 94 | 1014.2 |
| 20260507023648 | 12 | 162 | 8.0 | 16.1 | 0.00 | 0.41 | 0.23 | 94 | 1014.2 |
| 20260507023153 | 12 | 192 | 8.0 | 11.3 | 0.00 | 0.41 | 0.23 | 94 | 1014.1 |
| 20260507022636 | 12 | 172 | 4.8 | 11.3 | 0.00 | 0.41 | 0.23 | 94 | 1014.1 |
| 20260507021624 | 12 | 138 | 8.0 | 19.3 | 0.00 | 0.41 | 0.23 | 94 | 1014.0 |
| 20260507021138 | 12 | 137 | 8.0 | 19.3 | 0.00 | 0.41 | 0.23 | 94 | 1014.0 |
| 20260507020629 | 12 | 123 | 9.7 | 19.3 | 0.03 | 0.41 | 0.23 | 94 | 1014.0 |
| 20260507020123 | 12 | 159 | 9.7 | 19.3 | 0.03 | 0.41 | 0.23 | 94 | 1014.0 |
| 20260507015624 | 12 | 138 | 9.7 | 19.3 | 0.03 | 0.41 | 0.23 | 93 | 1014.0 |
| 20260507015123 | 12 | 192 | 9.7 | 17.7 | 0.03 | 0.43 | 0.23 | 93 | 1013.9 |
| 20260507014619 | 12 | 154 | 9.7 | 19.3 | 0.03 | 0.48 | 0.23 | 93 | 1014.0 |
| 20260507014119 | 12 | 148 | 11.3 | 19.3 | 0.03 | 0.51 | 0.23 | 93 | 1014.1 |
| 20260507013631 | 12 | 137 | 12.9 | 20.9 | 0.03 | 0.51 | 0.23 | 93 | 1014.0 |
| 20260507012601 | 12 | 144 | 11.3 | 19.3 | 0.08 | 0.51 | 0.23 | 93 | 1014.2 |
| 20260507012058 | 12 | 190 | 9.7 | 14.5 | 0.10 | 0.51 | 0.23 | 93 | 1014.2 |
| 20260507011555 | 12 | 196 | 4.8 | 14.5 | 0.13 | 0.51 | 0.23 | 93 | 1014.2 |
| 20260507011058 | 12 | 148 | 4.8 | 14.5 | 0.15 | 0.51 | 0.23 | 93 | 1014.2 |
| 20260507010550 | 12 | 257 | 6.4 | 11.3 | 0.13 | 0.51 | 0.23 | 93 | 1014.2 |
| 20260507010045 | 12 | 200 | 6.4 | 14.5 | 0.15 | 0.36 | 0.23 | 93 | 1014.2 |
| 20260507005527 | 12 | 203 | 9.7 | 16.1 | 0.15 | 0.36 | 0.23 | 93 | 1014.2 |
| 20260507005040 | 12 | 204 | 9.7 | 16.1 | 0.15 | 0.36 | 0.23 | 93 | 1014.0 |
| 20260507004536 | 12 | 147 | 6.4 | 11.3 | 0.15 | 0.36 | 0.23 | 93 | 1014.1 |
| 20260507003951 | 12 | 154 | 6.4 | 14.5 | 0.18 | 0.36 | 0.23 | 93 | 1014.0 |
| 20260507003446 | 12 | 141 | 8.0 | 14.5 | 0.18 | 0.36 | 0.23 | 93 | 1014.0 |
| 20260507002944 | 13 | 166 | 8.0 | 17.7 | 0.15 | 0.36 | 0.18 | 93 | 1014.0 |
| 20260507002438 | 13 | 173 | 9.7 | 17.7 | 0.13 | 0.36 | 0.15 | 93 | 1013.9 |
| 20260507001943 | 13 | 157 | 11.3 | 17.7 | 0.13 | 0.36 | 0.15 | 93 | 1014.0 |
| 20260507001444 | 13 | 151 | 8.0 | 14.5 | 0.10 | 0.36 | 0.13 | 93 | 1014.0 |
| 20260507000922 | 13 | 207 | 8.0 | 14.5 | 0.08 | 0.36 | 0.10 | 93 | 1014.1 |
| 20260507000428 | 13 | 195 | 6.4 | 14.5 | 0.05 | 0.36 | 0.08 | 93 | 1014.2 |
| 20260506235921 | 13 | 141 | 6.4 | 14.5 | 0.05 | 0.30 | 0.08 | 93 | 1014.2 |
| 20260506235414 | 13 | 189 | 4.8 | 9.7 | 0.05 | 0.30 | 0.08 | 93 | 1014.2 |
| 20260506234913 | 13 | 164 | 6.4 | 14.5 | 0.05 | 0.30 | 0.05 | 93 | 1014.1 |
| 20260506234403 | 13 | 162 | 6.4 | 17.7 | 0.05 | 0.30 | 0.05 | 93 | 1014.1 |
| 20260506233906 | 13 | 190 | 8.0 | 17.7 | 0.05 | 0.30 | 0.05 | 93 | 1014.1 |
| 20260506233355 | 13 | 157 | 8.0 | 19.3 | 0.05 | 0.30 | 0.05 | 93 | 1014.1 |
| 20260506232853 | 13 | 204 | 12.9 | 19.3 | 0.05 | 0.30 | 0.05 | 93 | 1014.0 |
| 20260506232355 | 13 | 209 | 12.9 | 19.3 | 0.03 | 0.30 | 0.03 | 93 | 1014.1 |
| 20260506231852 | 13 | 206 | 8.0 | 17.7 | 0.03 | 0.30 | 0.03 | 92 | 1014.1 |
| 20260506231350 | 13 | 149 | 9.7 | 20.9 | 0.03 | 0.30 | 0.03 | 92 | 1014.1 |
| 20260506230832 | 13 | 164 | 16.1 | 20.9 | 0.03 | 0.30 | 0.03 | 92 | 1014.0 |
| 20260506230330 | 13 | 203 | 9.7 | 20.9 | 0.03 | 0.30 | 0.03 | 92 | 1014.0 |
| 20260506225826 | 13 | 199 | 12.9 | 22.5 | 0.03 | 0.28 | 0.03 | 92 | 1014.1 |
| 20260506225329 | 13 | 197 | 16.1 | 24.1 | 0.03 | 0.28 | 0.03 | 92 | 1014.1 |
| 20260506224821 | 13 | 197 | 17.7 | 24.1 | 0.03 | 0.28 | 0.03 | 92 | 1014.2 |
| 20260506224323 | 13 | 199 | 16.1 | 25.7 | 0.00 | 0.28 | 0.00 | 92 | 1014.1 |
| 20260506223817 | 14 | 189 | 14.5 | 25.7 | 0.00 | 0.28 | 0.00 | 91 | 1014.3 |
| 20260506223315 | 14 | 203 | 14.5 | 22.5 | 0.00 | 0.28 | 0.00 | 91 | 1014.4 |
| 20260506222815 | 14 | 182 | 9.7 | 17.7 | 0.00 | 0.28 | 0.00 | 91 | 1014.4 |
| 20260506221816 | 14 | 212 | 8.0 | 14.5 | 0.00 | 0.28 | 0.00 | 91 | 1014.4 |
| 20260506221251 | 14 | 140 | 9.7 | 17.7 | 0.00 | 0.28 | 0.00 | 91 | 1014.4 |
| 20260506220748 | 14 | 199 | 11.3 | 24.1 | 0.00 | 0.28 | 0.00 | 91 | 1014.3 |
| 20260506220309 | 14 | 230 | 11.3 | 24.1 | 0.00 | 0.28 | 0.00 | 91 | 1014.2 |
| 20260506215734 | 14 | 209 | 14.5 | 19.3 | 0.00 | 0.28 | 0.28 | 91 | 1014.1 |
| 20260506215231 | 14 | 182 | 9.7 | 16.1 | 0.00 | 0.28 | 0.28 | 91 | 1014.3 |
| 20260506214236 | 14 | 190 | 4.8 | 17.7 | 0.00 | 0.28 | 0.28 | 91 | 1014.3 |
| 20260506213720 | 14 | 206 | 4.8 | 17.7 | 0.00 | 0.28 | 0.28 | 91 | 1014.3 |
| 20260506213219 | 14 | 202 | 11.3 | 24.1 | 0.00 | 0.28 | 0.28 | 91 | 1014.2 |
| 20260506212716 | 14 | 175 | 16.1 | 24.1 | 0.00 | 0.28 | 0.28 | 91 | 1014.2 |
| 20260506212223 | 14 | 213 | 14.5 | 24.1 | 0.00 | 0.28 | 0.28 | 91 | 1014.2 |
| 20260506211209 | 14 | 169 | 12.9 | 20.9 | 0.00 | 0.28 | 0.28 | 90 | 1014.3 |
| 20260506210705 | 14 | 169 | 9.7 | 14.5 | 0.00 | 0.28 | 0.28 | 90 | 1014.5 |
| 20260506205703 | 14 | 226 | 8.0 | 11.3 | 0.00 | 0.28 | 0.28 | 90 | 1014.4 |
| 20260506204154 | 14 | 212 | 6.4 | 22.5 | 0.00 | 0.28 | 0.28 | 89 | 1014.3 |
| 20260506203656 | 14 | 173 | 12.9 | 27.4 | 0.00 | 0.28 | 0.28 | 89 | 1014.4 |
| 20260506202634 | 14 | 214 | 16.1 | 24.1 | 0.00 | 0.28 | 0.28 | 89 | 1014.3 |
| 20260506202129 | 14 | 214 | 9.7 | 20.9 | 0.00 | 0.28 | 0.28 | 89 | 1014.3 |
| 20260506201624 | 14 | 200 | 11.3 | 20.9 | 0.00 | 0.28 | 0.28 | 90 | 1014.3 |
| 20260506201123 | 14 | 261 | 9.7 | 22.5 | 0.00 | 0.28 | 0.28 | 90 | 1014.2 |
| 20260506200619 | 14 | 212 | 12.9 | 22.5 | 0.00 | 0.28 | 0.28 | 90 | 1014.1 |
| 20260506200109 | 14 | 228 | 8.0 | 19.3 | 0.00 | 0.28 | 0.28 | 89 | 1014.0 |
| 20260506195643 | 14 | 172 | 14.5 | 24.1 | 0.00 | 0.28 | 0.28 | 89 | 1013.9 |
| 20260506194101 | 14 | 221 | 8.0 | 17.7 | 0.00 | 0.28 | 0.28 | 89 | 1013.8 |
| 20260506193603 | 14 | 210 | 9.7 | 17.7 | 0.03 | 0.28 | 0.28 | 89 | 1013.8 |
| 20260506193053 | 14 | 199 | 12.9 | 22.5 | 0.03 | 0.28 | 0.28 | 89 | 1013.7 |
| 20260506192607 | 14 | 161 | 12.9 | 22.5 | 0.05 | 0.28 | 0.28 | 89 | 1013.6 |
| 20260506192043 | 14 | 221 | 16.1 | 22.5 | 0.05 | 0.28 | 0.28 | 89 | 1013.5 |
| 20260506191546 | 14 | 233 | 9.7 | 24.1 | 0.05 | 0.28 | 0.28 | 89 | 1013.6 |
| 20260506191048 | 14 | 210 | 14.5 | 24.1 | 0.05 | 0.28 | 0.28 | 89 | 1013.5 |
| 20260506190545 | 14 | 210 | 11.3 | 22.5 | 0.05 | 0.28 | 0.28 | 89 | 1013.6 |
| 20260506190036 | 14 | 195 | 11.3 | 20.9 | 0.05 | 0.23 | 0.28 | 89 | 1013.6 |
| 20260506185541 | 14 | 238 | 11.3 | 20.9 | 0.05 | 0.23 | 0.28 | 89 | 1013.5 |
| 20260506185031 | 14 | 155 | 12.9 | 17.7 | 0.05 | 0.23 | 0.28 | 89 | 1013.4 |
| 20260506184509 | 14 | 175 | 11.3 | 19.3 | 0.05 | 0.23 | 0.28 | 89 | 1013.4 |
| 20260506184001 | 14 | 213 | 12.9 | 19.3 | 0.05 | 0.23 | 0.25 | 88 | 1013.4 |
| 20260506183442 | 15 | 207 | 8.0 | 17.7 | 0.05 | 0.23 | 0.25 | 88 | 1013.5 |
| 20260506182425 | 15 | 189 | 9.7 | 19.3 | 0.00 | 0.23 | 0.23 | 86 | 1013.3 |
| 20260506181421 | 15 | 182 | 11.3 | 24.1 | 0.00 | 0.23 | 0.23 | 85 | 1013.3 |
| 20260506180914 | 15 | 219 | 16.1 | 25.7 | 0.00 | 0.23 | 0.23 | 85 | 1013.3 |
| 20260506180414 | 15 | 158 | 17.7 | 30.6 | 0.00 | 0.23 | 0.23 | 85 | 1013.4 |
| 20260506175912 | 15 | 217 | 17.7 | 32.2 | 0.00 | 0.23 | 0.23 | 85 | 1013.3 |
| 20260506174854 | 15 | 180 | 16.1 | 30.6 | 0.00 | 0.23 | 0.23 | 85 | 1013.3 |
| 20260506174349 | 15 | 199 | 22.5 | 29.0 | 0.00 | 0.23 | 0.23 | 84 | 1013.3 |
| 20260506173845 | 15 | 230 | 17.7 | 25.7 | 0.00 | 0.23 | 0.23 | 84 | 1013.4 |
| 20260506173342 | 15 | 203 | 14.5 | 24.1 | 0.00 | 0.23 | 0.23 | 84 | 1013.4 |
| 20260506172846 | 15 | 203 | 11.3 | 29.0 | 0.00 | 0.23 | 0.23 | 84 | 1013.4 |
| 20260506172343 | 15 | 223 | 11.3 | 29.0 | 0.00 | 0.23 | 0.23 | 84 | 1013.3 |
| 20260506171833 | 15 | 227 | 12.9 | 24.1 | 0.00 | 0.23 | 0.23 | 84 | 1013.3 |
| 20260506171348 | 15 | 166 | 14.5 | 24.1 | 0.00 | 0.23 | 0.23 | 84 | 1013.3 |
| 20260506165335 | 15 | 197 | 19.3 | 33.8 | 0.00 | 0.23 | 0.23 | 84 | 1013.2 |
| 20260506164832 | 15 | 207 | 25.7 | 33.8 | 0.00 | 0.23 | 0.23 | 83 | 1013.1 |
| 20260506164329 | 15 | 204 | 12.9 | 27.4 | 0.00 | 0.23 | 0.23 | 85 | 1013.2 |
| 20260506163823 | 15 | 227 | 17.7 | 27.4 | 0.00 | 0.23 | 0.23 | 85 | 1013.2 |
| 20260506163318 | 15 | 224 | 16.1 | 25.7 | 0.00 | 0.23 | 0.23 | 85 | 1013.2 |
| 20260506162312 | 15 | 200 | 22.5 | 37.0 | 0.00 | 0.23 | 0.23 | 85 | 1013.3 |
| 20260506161811 | 16 | 175 | 17.7 | 27.4 | 0.00 | 0.23 | 0.23 | 85 | 1013.3 |
| 20260506161312 | 16 | 200 | 12.9 | 20.9 | 0.00 | 0.23 | 0.23 | 85 | 1013.2 |
| 20260506160812 | 16 | 186 | 14.5 | 27.4 | 0.00 | 0.23 | 0.23 | 85 | 1013.3 |
| 20260506155746 | 16 | 162 | 20.9 | 30.6 | 0.00 | 0.23 | 0.23 | 85 | 1013.4 |
| 20260506155252 | 16 | 193 | 16.1 | 30.6 | 0.00 | 0.23 | 0.23 | 85 | 1013.3 |
| 20260506154744 | 16 | 49 | 17.7 | 29.0 | 0.00 | 0.23 | 0.23 | 84 | 1013.3 |
| 20260506154244 | 16 | 195 | 19.3 | 29.0 | 0.00 | 0.23 | 0.23 | 85 | 1013.3 |
| 20260506153740 | 16 | 207 | 14.5 | 25.7 | 0.00 | 0.23 | 0.23 | 85 | 1013.2 |
| 20260506153232 | 16 | 206 | 11.3 | 25.7 | 0.00 | 0.23 | 0.23 | 86 | 1013.3 |
| 20260506152727 | 16 | 171 | 14.5 | 24.1 | 0.00 | 0.23 | 0.23 | 86 | 1013.3 |
| 20260506152229 | 16 | 221 | 14.5 | 29.0 | 0.00 | 0.23 | 0.23 | 86 | 1013.3 |
| 20260506151724 | 16 | 213 | 16.1 | 29.0 | 0.00 | 0.23 | 0.23 | 86 | 1013.4 |
| 20260506151212 | 16 | 223 | 14.5 | 27.4 | 0.00 | 0.23 | 0.23 | 86 | 1013.4 |
| 20260506150212 | 16 | 197 | 17.7 | 25.7 | 0.00 | 0.23 | 0.23 | 86 | 1013.2 |
| 20260506145712 | 16 | 178 | 8.0 | 24.1 | 0.00 | 0.23 | 0.23 | 87 | 1013.3 |
| 20260506144211 | 15 | 197 | 19.3 | 32.2 | 0.10 | 0.23 | 0.23 | 87 | 1013.2 |
| 20260506143710 | 15 | 243 | 20.9 | 38.6 | 0.10 | 0.23 | 0.23 | 87 | 1013.4 |
| 20260506143210 | 15 | 148 | 25.7 | 38.6 | 0.10 | 0.23 | 0.23 | 86 | 1013.3 |
| 20260506142712 | 15 | 209 | 20.9 | 35.4 | 0.10 | 0.23 | 0.23 | 87 | 1013.3 |
| 20260506142210 | 15 | 210 | 20.9 | 33.8 | 0.10 | 0.23 | 0.23 | 88 | 1013.1 |
| 20260506141710 | 15 | 162 | 20.9 | 30.6 | 0.10 | 0.23 | 0.23 | 88 | 1013.3 |
| 20260506141213 | 15 | 261 | 17.7 | 32.2 | 0.10 | 0.23 | 0.23 | 88 | 1013.3 |
| 20260506140710 | 15 | 214 | 14.5 | 32.2 | 0.10 | 0.23 | 0.23 | 88 | 1013.3 |
| 20260506140211 | 15 | 244 | 9.7 | 22.5 | 0.10 | 0.23 | 0.23 | 88 | 1013.3 |
| 20260506135709 | 15 | 224 | 14.5 | 22.5 | 0.10 | 0.13 | 0.23 | 88 | 1013.3 |
| 20260506135210 | 15 | 176 | 6.4 | 27.4 | 0.10 | 0.13 | 0.23 | 87 | 1013.2 |
| 20260506134208 | 16 | 195 | 16.1 | 25.7 | 0.00 | 0.13 | 0.13 | 84 | 1013.3 |
| 20260506133715 | 16 | 233 | 12.9 | 25.7 | 0.00 | 0.13 | 0.13 | 84 | 1013.2 |
| 20260506133211 | 16 | 200 | 14.5 | 25.7 | 0.00 | 0.13 | 0.13 | 83 | 1013.3 |
| 20260506132712 | 16 | 217 | 14.5 | 25.7 | 0.00 | 0.15 | 0.13 | 84 | 1013.5 |
| 20260506132208 | 16 | 279 | 6.4 | 30.6 | 0.00 | 0.15 | 0.13 | 84 | 1013.4 |
| 20260506131208 | 16 | 234 | 22.5 | 37.0 | 0.00 | 0.15 | 0.13 | 80 | 1013.7 |
| 20260506130221 | 17 | 200 | 22.5 | 33.8 | 0.00 | 0.15 | 0.13 | 76 | 1013.7 |
| 20260506125708 | 17 | 213 | 20.9 | 37.0 | 0.00 | 0.15 | 0.13 | 75 | 1013.6 |
| 20260506125216 | 17 | 203 | 24.1 | 37.0 | 0.00 | 0.15 | 0.13 | 73 | 1013.6 |
| 20260506124708 | 17 | 133 | 19.3 | 46.7 | 0.00 | 0.15 | 0.13 | 72 | 1013.6 |
| 20260506124212 | 17 | 200 | 24.1 | 46.7 | 0.00 | 0.15 | 0.13 | 71 | 1013.6 |
| 20260506123707 | 18 | 262 | 29.0 | 45.1 | 0.00 | 0.15 | 0.13 | 69 | 1013.7 |
| 20260506123207 | 18 | 250 | 14.5 | 46.7 | 0.00 | 0.15 | 0.13 | 68 | 1013.6 |
| 20260506122721 | 18 | 216 | 24.1 | 46.7 | 0.00 | 0.15 | 0.13 | 69 | 1013.7 |
| 20260506122207 | 18 | 173 | 32.2 | 45.1 | 0.00 | 0.18 | 0.13 | 68 | 1013.7 |
| 20260506121706 | 17 | 243 | 29.0 | 46.7 | 0.00 | 0.18 | 0.13 | 68 | 1013.7 |
| 20260506121208 | 18 | 217 | 20.9 | 46.7 | 0.00 | 0.18 | 0.13 | 71 | 1013.6 |
| 20260506120708 | 17 | 199 | 19.3 | 41.8 | 0.00 | 0.20 | 0.13 | 69 | 1013.6 |
| 20260506120201 | 17 | 219 | 27.4 | 41.8 | 0.00 | 0.20 | 0.13 | 69 | 1013.6 |
| 20260506115154 | 18 | 217 | 17.7 | 38.6 | 0.00 | 0.20 | 0.13 | 68 | 1013.6 |
| 20260506114647 | 18 | 169 | 17.7 | 30.6 | 0.00 | 0.20 | 0.13 | 70 | 1013.6 |
| 20260506114139 | 17 | 207 | 12.9 | 49.9 | 0.00 | 0.20 | 0.13 | 70 | 1013.6 |
| 20260506113636 | 17 | 204 | 29.0 | 49.9 | 0.00 | 0.23 | 0.13 | 70 | 1013.7 |
| 20260506113137 | 17 | 200 | 20.9 | 38.6 | 0.00 | 0.23 | 0.13 | 70 | 1013.6 |
| 20260506112649 | 17 | 223 | 19.3 | 37.0 | 0.00 | 0.23 | 0.13 | 69 | 1013.6 |
| 20260506112135 | 17 | 197 | 27.4 | 37.0 | 0.00 | 0.23 | 0.13 | 68 | 1013.5 |
| 20260506111625 | 17 | 216 | 16.1 | 41.8 | 0.00 | 0.23 | 0.13 | 69 | 1013.4 |
| 20260506111122 | 17 | 227 | 22.5 | 45.1 | 0.00 | 0.23 | 0.13 | 71 | 1013.5 |
| 20260506110631 | 17 | 203 | 19.3 | 45.1 | 0.00 | 0.23 | 0.13 | 71 | 1013.6 |
| 20260506110128 | 17 | 221 | 32.2 | 48.3 | 0.00 | 0.23 | 0.13 | 72 | 1013.7 |
| 20260506105610 | 17 | 213 | 30.6 | 48.3 | 0.00 | 0.23 | 0.13 | 73 | 1013.7 |
| 20260506105107 | 17 | 171 | 19.3 | 45.1 | 0.00 | 0.23 | 0.13 | 71 | 1013.7 |
| 20260506104612 | 16 | 204 | 27.4 | 45.1 | 0.00 | 0.23 | 0.13 | 71 | 1013.8 |
| 20260506104106 | 17 | 228 | 24.1 | 37.0 | 0.00 | 0.25 | 0.13 | 71 | 1013.8 |
| 20260506103614 | 17 | 219 | 20.9 | 43.5 | 0.00 | 0.25 | 0.13 | 71 | 1013.8 |
| 20260506103103 | 17 | 231 | 20.9 | 43.5 | 0.00 | 0.28 | 0.13 | 71 | 1013.7 |
| 20260506102603 | 17 | 190 | 22.5 | 41.8 | 0.00 | 0.30 | 0.13 | 71 | 1013.7 |
| 20260506102108 | 17 | 192 | 22.5 | 41.8 | 0.00 | 0.30 | 0.13 | 71 | 1013.8 |
| 20260506101553 | 17 | 161 | 22.5 | 48.3 | 0.00 | 0.30 | 0.13 | 69 | 1013.8 |
| 20260506100551 | 17 | 210 | 25.7 | 43.5 | 0.00 | 0.30 | 0.13 | 70 | 1013.8 |
| 20260506095612 | 16 | 226 | 33.8 | 46.7 | 0.00 | 0.30 | 0.13 | 71 | 1013.9 |
| 20260506094543 | 16 | 180 | 22.5 | 32.2 | 0.00 | 0.33 | 0.13 | 74 | 1013.8 |